Home > Weather > Caracas > Past weeks

Flag for Venezuela Weather for the Past 2 Weeks in Caracas, Venezuela

Now
93 °F

Scattered clouds.


Feels Like: 103 °F
Forecast: N/A
Wind: 6 mph from Northwest

Location: Caracas / Maiquetia Aerop. Intl. Simon Bolivar

Current Time: May 6, 2016 at 4:58:06 PM

Latest Report: May 6, 2016 at 4:00 PM


Visibility: N/A

Pressure: 29.86 "Hg (27.09 "Hg at 875m altitude)

Humidity: 53%

Dew Point: 73 °F

Location of CaracasLocation

Historic Weather in Caracas — Graph

°F

Caracas Temperature Yesterday

Maximum temperature yesterday: 93 °F (at 2:00 PM)
Minimum temperature yesterday: 77 °F (at 5:00 AM)
Average temperature yesterday: 83 °F

High & Low Weather Summary for the Past Weeks

 TemperatureHumidityPressure
High93 °F (Apr 24, 1:30 PM)100% (Apr 25, 1:30 PM)29.98 "Hg (Apr 25, 1:30 PM)
Low37 °F (Apr 25, 1:30 PM)49% (May 5, 2:00 PM)29.74 "Hg (Apr 27, 5:30 PM)
Average82 °F79%29.87 "Hg
* Reported Apr 21 2:30 PM — May 6 3:00 PM, Caracas, Weather by CustomWeather, © 2016

Note: Actual official high and low records may vary slightly from our data, if they occured in-between our weather recording intervals... More about our weather records

Advertising

Caracas Weather History for the Previous 24 Hours

Scroll right to see more
 ConditionsComfort  
Time TempWeatherWind HumidityBarometerVisibility
3:00 PM
Fri, May 6
93 °FScattered clouds.6 mph49%29.86 "HgN/A
2:00 PM91 °FScattered clouds.7 mph52%29.86 "HgN/A
1:00 PM90 °FPassing clouds.5 mph59%29.92 "HgN/A
12:00 PM90 °FPassing clouds.3 mph63%29.92 "HgN/A
11:00 AM90 °FPassing clouds.6 mph67%29.92 "HgN/A
10:00 AM86 °FPassing clouds.6 mph70%29.92 "HgN/A
9:00 AM84 °FPassing clouds.No wind70%29.92 "HgN/A
8:00 AM82 °FPassing clouds.No wind79%29.86 "HgN/A
7:00 AM77 °FScattered clouds.No wind83%29.86 "HgN/A
6:00 AM77 °FScattered clouds.2 mph83%29.86 "HgN/A
5:00 AM77 °FPassing clouds.3 mph79%29.86 "HgN/A
4:00 AM75 °FPassing clouds.No wind78%29.89 "HgN/A
3:00 AM75 °FPassing clouds.No wind83%29.89 "HgN/A
2:00 AM75 °FPassing clouds.No wind89%29.89 "HgN/A
1:00 AM79 °FPassing clouds.No wind84%29.86 "HgN/A
12:00 AM79 °FPassing clouds.No wind89%29.86 "HgN/A
11:00 PM
Thu, May 5
79 °FPassing clouds.No wind94%29.86 "HgN/A
10:00 PM79 °FPassing clouds.No wind94%29.86 "HgN/A
9:00 PM81 °FPassing clouds.2 mph89%29.83 "HgN/A
8:00 PM82 °FPassing clouds.No wind84%29.83 "HgN/A
7:00 PM82 °FPassing clouds.5 mph74%29.80 "HgN/A
6:00 PM88 °FScattered clouds.No wind59%29.80 "HgN/A
4:00 PM90 °FPassing clouds.2 mph55%29.83 "HgN/A
Weather by CustomWeather, © 2016

See weather overviewHow to use our weather pages